Terminal Aerodrome Forecast
Issued by NWS Charleston, WV

Current Version | Previous Version | Graphics & Text | Print | Product List | Glossary On
Versions: 1 2 3 4 5 6 7 8 9 10 11 12 13 14 15 16 17 18 19 20 21 22
000
FTUS41 KRLX 100858 AAA
TAFHTS
TAF AMD
KHTS 100858Z 1009/1106 VRB03KT P6SM BKN030
     FM101000 VRB03KT P6SM BKN050
     FM101900 25005KT P6SM FEW200
     FM110100 VRB03KT P6SM BKN080=

USA.gov is the U.S. government's official web portal to all federal, state and local government web resources and services.